MIET-AIS (RS28S SXC3-2*)

Last updated on Wed Sep 13 2023 00:03:03 GMT+0000 (Coordinated Universal Time)

1 53377U 22096H 23255.53091804 .00031938 00000+0 80218-3 0 9996 2 53377 97.4044 162.1755 0003149 110.5124 249.6460 15.39923680 61085

Satellite not in orbit

MIET-AIS (RS28S SXC3-2*)